Tracking 25656 objects as of 22-May-2022
HD Live streaming from Space Station
objects crossing your sky now

FREGAT DEB

Track FREGAT DEB now!
10-day predictions


NORAD ID: 45999
Int'l Code: 2011-037HA
Perigee: 750.8 km
Apogee: 4,646.7 km
Inclination: 51.5 °
Period: 143.3 minutes
Semi major axis: 9069 km
RCS: Unknown
Launch date: July 18, 2011
Source: Commonwealth of Independent States (former USSR) (CIS)
Launch site: TYURATAM MISSILE AND SPACE COMPLEX (TTMTR)

Note: This is SATELLITE DEBRIS
aabbcc
Your satellite tracking list
Your tracking list is empty




NASA's NSSDC Master Catalog

Two Line Element Set (TLE):
1 45999U 11037HA  22139.82216648 -.00000166  00000-0 -27646-3 0  9995
2 45999  51.4804  59.1608 2147765   2.7122 358.3384 10.05102198 66312
Source of the keplerian elements: AFSPC